| time (UTC) | temp F | wind direction | speed MPH | gust MPH | rain 1hr in | rain 24hr in | rain mn in | humidity % | barometer mb |
| 20260504194503 | 55 | 0 | 0.0 | 0.0 | 0.00 | 0.62 | 0.54 | 98 | 1012.1 |
| 20260504193603 | 55 | 0 | 0.0 | 0.0 | 0.00 | 0.62 | 0.54 | 98 | 1012.1 |
| 20260504192703 | 55 | 0 | 0.0 | 0.0 | 0.00 | 0.62 | 0.54 | 98 | 1012.1 |
| 20260504191803 | 55 | 0 | 0.0 | 0.0 | 0.00 | 0.62 | 0.54 | 98 | 1012.1 |
| 20260504190903 | 56 | 0 | 0.0 | 0.0 | 0.00 | 0.62 | 0.54 | 98 | 1012.1 |
| 20260504190003 | 56 | 0 | 0.0 | 0.0 | 0.00 | 0.62 | 0.54 | 98 | 1012.1 |
| 20260504185403 | 56 | 0 | 0.0 | 0.0 | 0.00 | 0.62 | 0.54 | 98 | 1012.1 |
| 20260504184503 | 56 | 0 | 0.0 | 0.0 | 0.04 | 0.62 | 0.54 | 98 | 1012.1 |
| 20260504183603 | 56 | 0 | 0.0 | 0.0 | 0.04 | 0.62 | 0.54 | 98 | 1012.1 |
| 20260504182703 | 56 | 225 | 0.0 | 2.0 | 0.04 | 0.62 | 0.54 | 98 | 1012.1 |
| 20260504181803 | 56 | 0 | 0.0 | 0.0 | 0.04 | 0.62 | 0.54 | 98 | 1012.1 |
| 20260504180903 | 56 | 225 | 0.0 | 1.0 | 0.04 | 0.62 | 0.54 | 98 | 1012.1 |
| 20260504180003 | 57 | 230 | 1.0 | 4.0 | 0.04 | 0.62 | 0.54 | 98 | 1012.1 |
| 20260504175403 | 57 | 253 | 3.0 | 4.0 | 0.04 | 0.62 | 0.54 | 98 | 1012.1 |
| 20260504174503 | 57 | 0 | 0.0 | 0.0 | 0.00 | 0.58 | 0.50 | 98 | 1012.1 |
| 20260504173603 | 57 | 225 | 0.0 | 4.0 | 0.00 | 0.58 | 0.50 | 98 | 1012.1 |
| 20260504172703 | 58 | 0 | 0.0 | 0.0 | 0.00 | 0.58 | 0.50 | 98 | 1012.1 |
| 20260504171803 | 58 | 0 | 0.0 | 0.0 | 0.00 | 0.58 | 0.50 | 98 | 1012.1 |
| 20260504170903 | 58 | 0 | 0.0 | 0.0 | 0.00 | 0.58 | 0.50 | 98 | 1012.1 |
| 20260504150905 | 57 | 315 | 0.0 | 3.0 | 0.00 | 0.58 | 0.50 | 98 | 1012.1 |
| 20260504140905 | 58 | 272 | 0.0 | 5.0 | 0.00 | 0.58 | 0.50 | 94 | 1012.1 |
| 20260504140214 | 58 | 291 | 1.0 | 5.0 | 0.00 | 0.58 | 0.50 | 93 | 1012.1 |
| 20260504081803 | 60 | 0 | 0.0 | 0.0 | 0.04 | 0.46 | 0.38 | 98 | 1010.1 |
| 20260504080909 | 60 | 0 | 0.0 | 0.0 | 0.04 | 0.46 | 0.38 | 98 | 1010.1 |
| 20260504080213 | 60 | 0 | 0.0 | 0.0 | 0.04 | 0.46 | 0.38 | 98 | 1010.1 |
| 20260504050005 | 58 | 0 | 0.0 | 0.0 | 0.00 | 0.42 | 0.34 | 98 | 1009.1 |
| 20260504045614 | 59 | 0 | 0.0 | 0.0 | 0.00 | 0.42 | 0.34 | 98 | 1009.1 |
| 20260504044504 | 58 | 225 | 0.0 | 2.0 | 0.00 | 0.42 | 0.34 | 98 | 1009.1 |
| 20260504043605 | 58 | 0 | 0.0 | 0.0 | 0.00 | 0.42 | 0.34 | 98 | 1009.1 |
| 20260504042704 | 58 | 225 | 0.0 | 3.0 | 0.00 | 0.42 | 0.34 | 98 | 1009.1 |
| 20260504041803 | 59 | 0 | 0.0 | 0.0 | 0.00 | 0.42 | 0.34 | 98 | 1009.1 |
| 20260504040905 | 59 | 180 | 0.0 | 3.0 | 0.00 | 0.42 | 0.34 | 98 | 1009.1 |
| 20260504040216 | 59 | 180 | 0.0 | 1.0 | 0.00 | 0.42 | 0.34 | 98 | 1009.1 |
| 20260504035403 | 58 | 0 | 0.0 | 0.0 | 0.00 | 0.42 | 0.34 | 98 | 1009.1 |
| 20260504034503 | 58 | 0 | 0.0 | 0.0 | 0.00 | 0.42 | 0.34 | 98 | 1009.1 |
| 20260504033814 | 58 | 180 | 0.0 | 2.0 | 0.00 | 0.42 | 0.34 | 98 | 1009.1 |
| 20260504032703 | 58 | 180 | 0.0 | 3.0 | 0.00 | 0.42 | 0.34 | 98 | 1009.1 |
| 20260504032015 | 58 | 180 | 0.0 | 3.0 | 0.00 | 0.42 | 0.34 | 98 | 1009.1 |
| 20260504030903 | 58 | 0 | 0.0 | 0.0 | 0.00 | 0.42 | 0.34 | 98 | 1010.1 |
| 20260504030005 | 58 | 180 | 0.0 | 4.0 | 0.00 | 0.42 | 0.34 | 98 | 1010.1 |
| 20260504025405 | 58 | 180 | 0.0 | 3.0 | 0.00 | 0.42 | 0.34 | 98 | 1009.1 |
| 20260504024503 | 58 | 180 | 0.0 | 1.0 | 0.00 | 0.42 | 0.34 | 98 | 1009.1 |
| 20260504023603 | 58 | 202 | 0.0 | 1.0 | 0.00 | 0.42 | 0.34 | 98 | 1010.1 |
| 20260504022703 | 59 | 202 | 1.0 | 1.0 | 0.00 | 0.42 | 0.34 | 98 | 1010.1 |
| 20260504021805 | 58 | 0 | 0.0 | 0.0 | 0.00 | 0.42 | 0.34 | 98 | 1010.1 |
| 20260504020904 | 58 | 0 | 0.0 | 0.0 | 0.00 | 0.42 | 0.34 | 98 | 1009.1 |
| 20260504020213 | 58 | 0 | 0.0 | 0.0 | 0.00 | 0.42 | 0.34 | 98 | 1009.1 |
| 20260504015403 | 58 | 0 | 0.0 | 0.0 | 0.04 | 0.42 | 0.34 | 98 | 1009.1 |
| 20260504014503 | 58 | 0 | 0.0 | 0.0 | 0.09 | 0.42 | 0.34 | 98 | 1009.1 |
| 20260504013814 | 58 | 0 | 0.0 | 0.0 | 0.13 | 0.42 | 0.34 | 98 | 1010.1 |
| 20260504012705 | 58 | 0 | 0.0 | 0.0 | 0.34 | 0.42 | 0.34 | 98 | 1010.1 |
| 20260504011803 | 58 | 0 | 0.0 | 0.0 | 0.34 | 0.42 | 0.34 | 98 | 1009.1 |
| 20260504011113 | 58 | 0 | 0.0 | 0.0 | 0.34 | 0.42 | 0.34 | 98 | 1009.1 |
| 20260504010003 | 58 | 0 | 0.0 | 0.0 | 0.34 | 0.42 | 0.34 | 98 | 1009.1 |
| 20260504005405 | 58 | 0 | 0.0 | 0.0 | 0.30 | 0.38 | 0.30 | 98 | 1010.1 |
| 20260504004503 | 58 | 0 | 0.0 | 0.0 | 0.25 | 0.33 | 0.25 | 98 | 1010.1 |
| 20260504003603 | 58 | 0 | 0.0 | 0.0 | 0.21 | 0.29 | 0.21 | 98 | 1009.1 |
| 20260504002705 | 58 | 0 | 0.0 | 0.0 | 0.00 | 0.08 | 0.00 | 98 | 1009.1 |
| 20260504001803 | 58 | 0 | 0.0 | 0.0 | 0.00 | 0.08 | 0.00 | 98 | 1009.1 |
| 20260504000906 | 58 | 0 | 0.0 | 0.0 | 0.00 | 0.08 | 0.00 | 98 | 1009.1 |
| 20260504000003 | 58 | 0 | 0.0 | 0.0 | 0.00 | 0.08 | 0.00 | 98 | 1009.1 |
| 20260503235403 | 58 | 0 | 0.0 | 0.0 | 0.00 | 0.08 | 0.00 | 98 | 1009.1 |
| 20260503234503 | 58 | 0 | 0.0 | 0.0 | 0.00 | 0.08 | 0.00 | 98 | 1009.1 |
| 20260503233813 | 58 | 0 | 0.0 | 0.0 | 0.00 | 0.08 | 0.00 | 98 | 1010.1 |
| 20260503232705 | 58 | 0 | 0.0 | 0.0 | 0.00 | 0.08 | 0.00 | 98 | 1010.1 |
| 20260503231803 | 58 | 0 | 0.0 | 0.0 | 0.00 | 0.08 | 0.00 | 98 | 1010.1 |
| 20260503230905 | 58 | 0 | 0.0 | 0.0 | 0.00 | 0.08 | 0.00 | 98 | 1010.1 |
| 20260503230006 | 58 | 0 | 0.0 | 0.0 | 0.00 | 0.08 | 0.00 | 98 | 1010.1 |
| 20260503225403 | 58 | 0 | 0.0 | 0.0 | 0.00 | 0.08 | 0.00 | 98 | 1010.1 |
| 20260503224503 | 58 | 0 | 0.0 | 0.0 | 0.00 | 0.08 | 0.00 | 98 | 1010.1 |
| 20260503223603 | 59 | 0 | 0.0 | 0.0 | 0.00 | 0.08 | 0.00 | 98 | 1010.1 |
| 20260503222703 | 59 | 0 | 0.0 | 0.0 | 0.00 | 0.08 | 0.00 | 98 | 1010.1 |
| 20260503221804 | 59 | 0 | 0.0 | 0.0 | 0.00 | 0.08 | 0.00 | 98 | 1010.1 |
| 20260503220903 | 59 | 0 | 0.0 | 0.0 | 0.00 | 0.08 | 0.00 | 98 | 1010.1 |
| 20260503220004 | 60 | 0 | 0.0 | 0.0 | 0.00 | 0.08 | 0.00 | 98 | 1010.1 |
| 20260503215403 | 60 | 0 | 0.0 | 0.0 | 0.04 | 0.08 | 0.08 | 98 | 1010.1 |
| 20260503214503 | 60 | 0 | 0.0 | 0.0 | 0.04 | 0.08 | 0.08 | 98 | 1010.1 |
| 20260503213605 | 60 | 0 | 0.0 | 0.0 | 0.04 | 0.08 | 0.08 | 98 | 1011.1 |
| 20260503212915 | 60 | 0 | 0.0 | 0.0 | 0.04 | 0.08 | 0.08 | 98 | 1011.1 |
| 20260503211803 | 60 | 0 | 0.0 | 0.0 | 0.04 | 0.08 | 0.08 | 98 | 1011.1 |
| 20260503210903 | 61 | 0 | 0.0 | 0.0 | 0.08 | 0.08 | 0.08 | 98 | 1011.1 |
| 20260503210005 | 61 | 0 | 0.0 | 0.0 | 0.08 | 0.08 | 0.08 | 98 | 1011.1 |
| 20260503205403 | 61 | 0 | 0.0 | 0.0 | 0.04 | 0.04 | 0.04 | 98 | 1010.1 |
| 20260503204503 | 61 | 0 | 0.0 | 0.0 | 0.04 | 0.04 | 0.04 | 98 | 1010.1 |
| 20260503203603 | 61 | 0 | 0.0 | 0.0 | 0.04 | 0.04 | 0.04 | 98 | 1010.1 |
| 20260503202703 | 61 | 0 | 0.0 | 0.0 | 0.04 | 0.04 | 0.04 | 98 | 1010.1 |
| 20260503201804 | 61 | 0 | 0.0 | 0.0 | 0.04 | 0.04 | 0.04 | 98 | 1010.1 |
| 20260503200903 | 62 | 0 | 0.0 | 0.0 | 0.00 | 0.00 | 0.00 | 98 | 1010.1 |
| 20260503200215 | 62 | 0 | 0.0 | 0.0 | 0.00 | 0.00 | 0.00 | 97 | 1010.1 |
| 20260503195406 | 61 | 0 | 0.0 | 0.0 | 0.00 | 0.00 | 0.00 | 97 | 1009.1 |